Lid_Strength_Index
4 3 3 2 2 2 2 2 1 1 1 1 1 1 2 1 1 0 -0 -1 -1 -0 0 0 0 -0 0 0 0 0 1 1 0 1 1 1 0 0 0 -0 -0 -1 -1
5 4 3 3 2 2 2 2 2 1 1 1 1 1 1 1 0 -0 -0 -0 0 -1 0 0 1 -0 0 1 0 1 1 1 0 2 3 4 3 1 0 -0 -0 0 -1
6 5 4 3 2 2 2 2 1 1 1 1 1 1 1 1 1 1 0 -0 -0 -0 -1 -0 0 -0 0 1 1 1 1 2 1 1 2 5 6 3 1 1 0 0 0
5 4 4 4 4 2 2 1 1 1 1 1 1 2 2 3 2 1 1 0 -0 -0 -0 -1 -0 -0 0 1 1 0 0 1 2 1 1 1 2 4 5 2 1 0 0
5 5 4 3 2 2 2 1 1 1 1 1 1 1 2 1 1 1 1 1 -0 -0 -0 -0 -0 -0 -0 1 0 0 1 1 1 2 2 2 2 2 4 5 3 1 1
5 4 4 3 3 2 2 2 2 2 2 1 1 1 2 2 2 2 1 1 1 0 0 -0 -0 -0 -0 0 0 0 0 1 1 1 1 2 3 3 3 4 4 4 2
5 5 5 4 3 3 2 2 2 2 1 1 1 1 1 2 2 2 2 1 1 1 1 0 0 0 -0 -0 -0 0 0 0 1 1 1 1 1 1 2 3 3 4 2
5 5 4 4 3 3 3 2 3 2 2 1 1 1 1 1 1 1 1 1 1 1 -0 0 -0 -0 -0 -0 -0 0 0 0 0 1 1 1 1 1 1 2 3 4 3
5 5 4 4 3 4 4 3 3 2 2 1 1 1 1 1 1 1 1 1 1 1 0 -0 0 -0 -0 -0 0 0 0 0 0 0 1 1 0 0 0 1 1 3 5
6 5 4 4 3 3 3 3 2 2 2 1 1 1 1 1 1 1 1 1 1 1 0 0 0 0 0 -0 0 0 0 1 0 0 1 1 0 1 1 1 1 1 3
6 5 4 3 3 3 2 2 2 2 2 1 1 1 1 1 1 1 1 1 1 1 1 0 0 0 0 0 0 0 0 1 1 0 1 1 0 1 1 1 1 1 2
5 5 4 3 3 3 2 2 2 2 1 1 1 1 1 1 1 1 1 0 1 1 1 0 0 0 0 0 1 1 1 1 1 1 1 1 1 1 1 1 1 1 1
5 5 4 4 4 3 3 3 2 2 1 1 1 1 1 1 1 1 1 1 1 1 1 0 1 1 1 1 0 1 1 1 1 1 1 1 1 1 1 1 1 1 1
5 5 5 4 4 4 3 3 2 2 2 1 2 2 1 1 1 1 1 1 1 1 1 1 1 0 0 1 1 1 1 1 1 0 1 1 1 1 1 1 1 1 1
6 5 5 4 4 3 4 4 3 2 2 3 2 2 2 2 1 1 1 1 1 1 1 1 1 0 1 1 1 1 1 1 1 1 0 0 0 1 1 1 1 1 2
6 5 4 4 4 3 3 2 2 2 2 3 2 1 1 1 1 1 1 1 1 1 1 1 1 1 1 3 3 1 1 1 1 1 1 0 1 1 2 3 2 1 1
5 5 4 4 3 3 3 3 2 2 2 2 2 2 2 2 1 1 1 1 1 1 1 1 1 1 1 3 3 2 1 1 1 1 1 1 0 1 0 3 3 3 3
4 4 4 3 3 2 2 2 2 2 2 2 2 2 2 2 2 1 2 1 1 1 1 1 1 1 1 3 4 3 1 1 1 1 1 1 1 0 1 1 2 2 3
4 4 3 3 2 2 2 2 2 2 2 2 2 1 1 2 2 2 2 1 1 2 3 3 3 3 3 4 5 4 1 1 1 1 0 1 1 3 4 1 3 4 5
4 3 3 3 3 2 2 2 2 2 2 1 1 1 1 1 2 2 1 1 1 2 1 2 1 3 2 4 6 4 1 2 2 1 1 4 2 6 6 2 3 5 4
3 4 3 4 4 3 2 2 3 3 1 1 0 1 1 1 1 1 1 1 2 2 1 2 2 2 2 2 6 7 2 2 2 2 2 3 7 8 9 7 5 4 4
3 2 3 3 3 2 2 3 3 1 1 1 1 1 1 1 1 1 1 1 2 2 2 2 2 1 1 4 5 7 6 2 2 2 2 4 9 10 10 8 7 7 4
4 3 3 3 3 3 2 3 2 1 2 1 2 1 1 1 1 2 2 2 2 3 4 3 3 2 1 1 5 7 8 6 1 1 4 9 11 11 9 8 7 6 3
4 4 3 3 3 3 3 3 3 2 2 2 2 2 2 2 1 1 1 2 2 3 4 3 3 3 2 2 1 2 4 6 5 5 6 8 7 7 6 6 5 3 2
4 3 3 3 3 2 2 2 1 1 2 2 2 2 2 2 2 2 2 2 1 2 3 4 3 3 3 2 5 3 2 4 5 6 7 6 5 5 4 4 4 3 3
3 4 4 4 4 3 2 2 1 2 2 3 2 2 2 2 2 2 2 5 6 8 8 10 8 4 7 9 9 10 10 10 9 5 5 5 4 4 4 4 3 3 3